Location: Le Rocchette
(44.3500°N, 7.8333°E)
Time: 07:55:06
(UTC+00:00)

ATLAS CENTAUR R/B - Pass Details

Date: 17 November 2019
Orbit: 457 x 691 km, 64.7° (Epoch: 30 November)

Event Time Altitude Azimuth Distance (km) Brightness Sun altitude
Rises 04:46:49 0° 205° (SSW) 3,047 5.0 -17.8°
Reaches altitude 10° 04:49:10 10° 202° (SSW) 2,137 4.2 -17.4°
Maximum altitude 04:54:01 66° 122° (ESE) 749 2.2 -16.5°
Drops below altitude 10° 04:58:47 10° 40° (NE) 2,098 4.7 -15.7°
Sets 05:01:05 0° 38° (NE) 2,988 5.4 -15.3°
